Satellite: OKEAN-4 Catalog number: 23317 Epoch time: 10293.69835905 Element set: 0371 Inclination: 082.5400 deg RA of node: 236.6960 deg Eccentricity: 0.0021672 Arg of perigee: 183.7040 deg Mean anomaly: 176.4023 deg Mean motion: 14.82879337 rev/day Decay rate: 5.57e-06 rev/day^2 Epoch rev: 86505 Checksum: 309
Satellite: NOAA-14 Catalog number: 23455 Epoch time: 10294.75170353 Element set: 239 Inclination: 098.8705 deg RA of node: 014.5619 deg Eccentricity: 0.0008639 Arg of perigee: 234.7601 deg Mean anomaly: 125.3246 deg Mean motion: 14.13798288 rev/day Decay rate: 1.21e-06 rev/day^2 Epoch rev: 81547 Checksum: 310
Satellite: NOAA-15 Catalog number: 25338 Epoch time: 10294.76558059 Element set: 567 Inclination: 098.6337 deg RA of node: 279.5069 deg Eccentricity: 0.0011624 Arg of perigee: 068.2407 deg Mean anomaly: 292.0486 deg Mean motion: 14.24861612 rev/day Decay rate: 1.84e-06 rev/day^2 Epoch rev: 64678 Checksum: 341
Satellite: RESURS Catalog number: 25394 Epoch time: 10293.61193720 Element set: 0634 Inclination: 098.3029 deg RA of node: 304.8518 deg Eccentricity: 0.0000807 Arg of perigee: 165.9915 deg Mean anomaly: 194.1288 deg Mean motion: 14.24212561 rev/day Decay rate: 9.0e-08 rev/day^2 Epoch rev: 63820 Checksum: 291
Satellite: FENGYUN1 Catalog number: 25730 Epoch time: 10293.85001996 Element set: 164 Inclination: 098.7971 deg RA of node: 255.5964 deg Eccentricity: 0.0020749 Arg of perigee: 273.3503 deg Mean anomaly: 086.5262 deg Mean motion: 14.08344008 rev/day Decay rate: 1.011e-05 rev/day^2 Epoch rev: 58937 Checksum: 308
Satellite: OKEAN-0 Catalog number: 25860 Epoch time: 10294.70937350 Element set: 129 Inclination: 097.8503 deg RA of node: 263.2248 deg Eccentricity: 0.0001826 Arg of perigee: 060.7273 deg Mean anomaly: 299.4117 deg Mean motion: 14.73673253 rev/day Decay rate: 1.44e-06 rev/day^2 Epoch rev: 60553 Checksum: 296
Satellite: NOAA-16 Catalog number: 26536 Epoch time: 10294.73213801 Element set: 42 Inclination: 099.1662 deg RA of node: 315.1567 deg Eccentricity: 0.0010452 Arg of perigee: 346.5422 deg Mean anomaly: 013.5951 deg Mean motion: 14.12582256 rev/day Decay rate: 1.87e-06 rev/day^2 Epoch rev: 51969 Checksum: 291
Satellite: NOAA-17 Catalog number: 27453 Epoch time: 10294.73760387 Element set: 32 Inclination: 098.4165 deg RA of node: 339.9879 deg Eccentricity: 0.0012470 Arg of perigee: 124.3239 deg Mean anomaly: 235.9613 deg Mean motion: 14.24201236 rev/day Decay rate: 1.72e-06 rev/day^2 Epoch rev: 43271 Checksum: 301
Satellite: NOAA-18 Catalog number: 28654 Epoch time: 10294.77148696 Element set: 522 Inclination: 098.9645 deg RA of node: 240.7460 deg Eccentricity: 0.0015191 Arg of perigee: 057.5957 deg Mean anomaly: 302.7151 deg Mean motion: 14.11398729 rev/day Decay rate: 7.3e-07 rev/day^2 Epoch rev: 27929 Checksum: 340
Satellite: NOAA-19 Catalog number: 33591 Epoch time: 10294.78708181 Element set: 718 Inclination: 098.8002 deg RA of node: 234.2756 deg Eccentricity: 0.0013399 Arg of perigee: 293.3380 deg Mean anomaly: 066.6853 deg Mean motion: 14.11095535 rev/day Decay rate: 2.05e-06 rev/day^2 Epoch rev: 8776 Checksum: 325
/EX SB KEPS @ AMSAT $ORB10294.M Orbital Elements 10294.MISC
HR AMSAT ORBITAL ELEMENTS FOR MANNED AND MISCELLANEOUS SATELLITES FROM WA5QGD FORT WORTH,TX October 21, 2010 BID: ORB10294.M TO ALL RADIO AMATEURS BT
Satellite: HUBBLE Catalog number: 20580 Epoch time: 10292.98334943 Element set: 664 Inclination: 028.4689 deg RA of node: 145.1032 deg Eccentricity: 0.0003368 Arg of perigee: 092.2778 deg Mean anomaly: 267.8229 deg Mean motion: 15.01065959 rev/day Decay rate: 6.13e-06 rev/day^2 Epoch rev: 92352 Checksum: 313
Satellite: ISS Catalog number: 25544 Epoch time: 10295.03824160 Element set: 121 Inclination: 051.6460 deg RA of node: 301.5784 deg Eccentricity: 0.0007482 Arg of perigee: 108.3355 deg Mean anomaly: 301.2197 deg Mean motion: 15.71952222 rev/day Decay rate: 2.3707e-04 rev/day^2 Epoch rev: 68342 Checksum: 269
Satellite: CO-58 Catalog number: 28895 Epoch time: 10294.36484823 Element set: 710 Inclination: 097.9955 deg RA of node: 174.5295 deg Eccentricity: 0.0016720 Arg of perigee: 248.4451 deg Mean anomaly: 111.4953 deg Mean motion: 14.59949493 rev/day Decay rate: 2.29e-06 rev/day^2 Epoch rev: 26539 Checksum: 357
Satellite: FALCON Catalog number: 30776 Epoch time: 10293.56559731 Element set: 0947 Inclination: 035.4345 deg RA of node: 002.9794 deg Eccentricity: 0.0000984 Arg of perigee: 235.0887 deg Mean anomaly: 124.9738 deg Mean motion: 15.03888505 rev/day Decay rate: 1.253e-05 rev/day^2 Epoch rev: 19894 Checksum: 335
Satellite: MAST Catalog number: 31126 Epoch time: 10294.60307246 Element set: 992 Inclination: 097.9247 deg RA of node: 329.9927 deg Eccentricity: 0.0094107 Arg of perigee: 192.5698 deg Mean anomaly: 167.3156 deg Mean motion: 14.53631630 rev/day Decay rate: 2.03e-06 rev/day^2 Epoch rev: 18642 Checksum: 313
Satellite: CAPE1 Catalog number: 31130 Epoch time: 10293.67409301 Element set: 0012 Inclination: 097.9257 deg RA of node: 326.2813 deg Eccentricity: 0.0102573 Arg of perigee: 204.0099 deg Mean anomaly: 155.6291 deg Mean motion: 14.52236365 rev/day Decay rate: 2.67e-06 rev/day^2 Epoch rev: 18587 Checksum: 282
Satellite: COMPASS Catalog number: 32787 Epoch time: 10294.70159220 Element set: 809 Inclination: 097.8822 deg RA of node: 357.6309 deg Eccentricity: 0.0014814 Arg of perigee: 232.6674 deg Mean anomaly: 127.3128 deg Mean motion: 14.82009186 rev/day Decay rate: 9.47e-06 rev/day^2 Epoch rev: 13423 Checksum: 308
Satellite: AAUSAT2 Catalog number: 32788 Epoch time: 10293.61197823 Element set: 0800 Inclination: 097.8813 deg RA of node: 356.7129 deg Eccentricity: 0.0014478 Arg of perigee: 236.3027 deg Mean anomaly: 123.6872 deg Mean motion: 14.82156984 rev/day Decay rate: 8.26e-06 rev/day^2 Epoch rev: 13408 Checksum: 324
Satellite: DO-64 Catalog number: 32789 Epoch time: 10294.68601801 Element set: 817 Inclination: 097.8896 deg RA of node: 358.3983 deg Eccentricity: 0.0014686 Arg of perigee: 230.6326 deg Mean anomaly: 129.3604 deg Mean motion: 14.82375651 rev/day Decay rate: 1.547e-05 rev/day^2 Epoch rev: 13424 Checksum: 341
Satellite: CO-66 Catalog number: 32791 Epoch time: 10293.18960980 Element set: 0801 Inclination: 097.8828 deg RA of node: 356.1395 deg Eccentricity: 0.0014949 Arg of perigee: 236.6394 deg Mean anomaly: 123.3383 deg Mean motion: 14.81766688 rev/day Decay rate: 1.13e-06 rev/day^2 Epoch rev: 13396 Checksum: 348
Satellite: RS-30 Catalog number: 32953 Epoch time: 10294.57795785 Element set: 150 Inclination: 082.5008 deg RA of node: 311.0922 deg Eccentricity: 0.0018619 Arg of perigee: 182.4138 deg Mean anomaly: 177.6857 deg Mean motion: 12.43008521 rev/day Decay rate: 1.0e-07 rev/day^2 Epoch rev: 10944 Checksum: 290
Satellite: TACSAT-3 Catalog number: 35001 Epoch time: 10293.91420505 Element set: 0419 Inclination: 040.4529 deg RA of node: 178.1879 deg Eccentricity: 0.0022237 Arg of perigee: 231.4958 deg Mean anomaly: 128.3880 deg Mean motion: 15.43190826 rev/day Decay rate: 9.266e-05 rev/day^2 Epoch rev: 08005 Checksum: 294
Satellite: PHARMSAT Catalog number: 35002 Epoch time: 10294.86567329 Element set: 385 Inclination: 040.4676 deg RA of node: 170.0898 deg Eccentricity: 0.0024881 Arg of perigee: 240.9519 deg Mean anomaly: 118.8808 deg Mean motion: 15.43580270 rev/day Decay rate: 8.508e-05 rev/day^2 Epoch rev: 8022 Checksum: 311
Satellite: HAWKSAT1 Catalog number: 35003 Epoch time: 10294.85590737 Element set: 418 Inclination: 040.4547 deg RA of node: 160.5280 deg Eccentricity: 0.0023984 Arg of perigee: 262.6505 deg Mean anomaly: 097.1593 deg Mean motion: 15.48225880 rev/day Decay rate: 2.0101e-04 rev/day^2 Epoch rev: 8033 Checksum: 285
Satellite: CP6 Catalog number: 35004 Epoch time: 10293.92705201 Element set: 0418 Inclination: 040.4597 deg RA of node: 164.0173 deg Eccentricity: 0.0023757 Arg of perigee: 260.2779 deg Mean anomaly: 099.5384 deg Mean motion: 15.49621702 rev/day Decay rate: 2.4803e-04 rev/day^2 Epoch rev: 08020 Checksum: 289
Satellite: AEROCUB3 Catalog number: 35005 Epoch time: 10294.82892201 Element set: 492 Inclination: 040.4653 deg RA of node: 146.2412 deg Eccentricity: 0.0024605 Arg of perigee: 294.3782 deg Mean anomaly: 065.4467 deg Mean motion: 15.64322285 rev/day Decay rate: 1.22783e-03 rev/day^2 Epoch rev: 8048 Checksum: 292
Satellite: CASTOR Catalog number: 35694 Epoch time: 10230.44082147 Element set: 655 Inclination: 051.5930 deg RA of node: 222.0149 deg Eccentricity: 0.0004218 Arg of perigee: 308.0851 deg Mean anomaly: 053.0105 deg Mean motion: 16.48877011 rev/day Decay rate: 7.179566e-02 rev/day^2 Epoch rev: 6110 Checksum: 273
Satellite: METEOR-M Catalog number: 35865 Epoch time: 10294.73282788 Element set: 761 Inclination: 098.7430 deg RA of node: 347.5275 deg Eccentricity: 0.0003298 Arg of perigee: 013.3967 deg Mean anomaly: 346.7261 deg Mean motion: 14.21832180 rev/day Decay rate: 1.76e-06 rev/day^2 Epoch rev: 5670 Checksum: 318
Satellite: RS-38 Catalog number: 35869 Epoch time: 10294.76081492 Element set: 775 Inclination: 098.7427 deg RA of node: 347.5951 deg Eccentricity: 0.0005400 Arg of perigee: 007.4678 deg Mean anomaly: 352.6542 deg Mean motion: 14.21991152 rev/day Decay rate: 1.77e-06 rev/day^2 Epoch rev: 5671 Checksum: 332
/EX